Wind_Speed
59 60 62 65 67 69 72 75 79 84 88 91 97 103 102 107 108 108 94 82 72 62 51 42 31 29 34 42 47 46 51 56 65 70 79 103 111 114 118 108 98 94 88
61 62 64 66 67 70 74 77 82 86 90 94 97 105 105 105 107 103 91 80 67 57 48 39 30 27 28 36 43 47 53 56 57 65 80 94 107 108 116 111 105 94 90
62 64 65 66 68 71 75 79 84 87 91 95 101 104 107 104 102 98 87 77 64 53 47 37 29 24 26 35 43 50 53 58 59 60 74 89 103 110 116 113 106 95 89
64 65 65 66 69 72 77 81 86 89 94 98 102 105 105 101 100 94 85 73 59 50 44 35 28 22 27 35 43 47 51 53 57 69 75 93 100 109 113 110 102 93 86
64 65 64 66 70 74 79 83 87 91 94 98 102 104 104 100 98 92 81 69 54 46 40 32 23 21 28 35 44 49 53 55 56 76 78 92 96 107 107 104 96 85 79
65 65 64 67 72 77 81 86 89 93 95 98 103 103 103 100 96 91 75 63 49 42 36 26 20 24 32 39 46 50 51 57 63 70 81 91 94 99 108 101 94 83 74
63 64 65 69 74 79 83 87 92 94 98 100 103 101 101 98 95 88 70 57 44 39 30 21 20 27 32 38 47 52 59 61 64 78 81 90 95 103 106 104 91 80 69
64 66 67 72 76 81 85 90 92 94 99 102 99 101 101 97 92 82 65 52 39 34 26 19 24 29 33 43 48 54 60 64 68 76 83 91 90 96 99 101 87 83 75
66 68 71 75 79 83 88 91 94 95 100 101 101 104 100 95 90 75 59 48 36 29 23 20 26 32 36 45 51 58 63 71 74 84 86 91 87 91 102 100 89 79 69
68 71 73 79 81 85 89 93 96 96 101 103 104 104 99 90 85 68 52 43 33 26 19 23 27 35 41 47 51 58 65 74 81 84 89 90 87 94 97 92 85 74 72
72 74 77 81 84 88 91 95 98 100 104 103 105 103 96 87 81 60 47 37 31 25 19 25 29 37 44 53 54 61 67 77 78 88 89 90 89 97 92 87 81 78 68
74 77 80 83 87 90 94 98 100 103 103 102 105 102 93 84 74 54 41 32 28 24 20 28 32 40 48 56 61 65 69 77 76 87 90 90 94 93 87 83 81 80 74
75 78 82 86 89 92 96 100 102 105 100 103 102 97 86 80 66 48 35 28 26 22 22 31 35 46 54 61 61 58 66 70 73 83 83 85 104 101 90 84 85 79 70
79 81 83 86 90 94 99 103 106 102 100 104 100 89 81 74 59 42 31 24 24 20 24 32 37 51 58 64 67 69 69 67 70 76 83 93 105 104 96 91 78 71 62
82 84 86 88 91 97 102 105 105 102 100 101 96 81 76 67 51 36 27 21 23 20 26 34 39 52 62 67 69 71 77 80 78 81 85 90 101 104 93 83 77 70 61
84 84 86 91 95 99 103 106 103 99 100 99 86 75 70 55 44 30 23 20 22 21 27 36 41 56 68 72 73 75 82 88 91 90 94 91 93 95 91 87 78 65 63
86 87 90 94 98 100 103 103 100 100 100 95 77 71 59 49 36 25 19 20 20 22 28 39 47 66 75 81 82 84 91 93 99 98 102 102 96 92 90 86 76 66 63
89 92 94 97 100 101 100 100 98 98 96 90 70 62 52 41 30 22 16 19 20 23 31 43 48 71 81 82 85 87 88 93 98 103 104 105 102 95 92 87 74 74 66
90 94 97 98 99 98 98 99 96 92 88 71 65 55 47 33 27 18 15 20 20 25 32 45 50 72 80 84 89 88 92 93 97 104 107 104 101 94 90 81 82 75 66
91 95 96 98 96 96 95 95 88 87 76 61 55 47 43 29 25 16 15 20 22 27 34 48 56 81 85 87 92 89 92 94 102 112 108 107 101 97 89 82 82 75 66
88 90 93 93 93 92 92 88 84 77 63 57 47 42 38 31 23 15 16 21 23 29 38 53 62 89 90 93 94 98 99 96 105 109 104 106 100 93 89 86 81 78 71
84 86 88 89 87 86 83 79 76 68 56 51 43 38 34 29 22 16 16 21 24 32 43 57 72 93 95 92 97 99 101 101 102 111 107 101 98 96 94 86 81 78 71
78 78 81 80 78 78 78 77 69 57 52 45 40 35 31 27 20 16 17 22 26 34 45 62 77 93 95 92 94 98 99 102 102 103 106 105 106 98 90 82 79 77 72
72 73 72 72 74 76 76 74 64 50 46 42 36 31 28 25 20 16 18 22 27 36 46 64 78 90 90 91 93 95 95 99 103 106 105 105 98 96 94 86 80 77 76
66 67 70 72 74 77 75 68 52 47 42 40 34 28 25 21 20 17 19 24 29 37 49 65 80 88 91 90 94 96 99 103 106 111 117 110 107 105 102 89 82 80 78
65 70 71 75 74 77 72 63 45 44 40 37 32 27 22 18 19 18 20 25 31 40 52 67 80 87 89 92 95 99 103 105 108 108 113 118 113 107 100 89 84 82 77
Wind_Direction
299 301 302 304 306 308 310 314 317 319 322 324 327 329 328 326 326 321 324 323 316 312 308 299 283 256 243 232 229 221 215 215 214 218 212 211 212 210 218 217 215 219 226
299 299 300 302 305 307 309 314 317 319 322 325 329 331 330 327 327 322 325 321 317 312 308 300 285 255 239 224 220 211 209 206 209 208 206 206 206 208 214 218 217 217 224
297 297 299 301 304 307 310 314 317 319 323 328 329 331 331 330 328 323 325 320 318 312 307 299 283 255 232 216 212 204 204 201 201 199 199 201 203 205 208 216 218 216 219
295 296 299 303 305 307 311 314 317 321 324 327 329 331 330 333 327 325 326 319 316 310 304 297 278 247 221 211 205 199 197 195 191 194 194 197 201 205 209 214 216 218 218
295 296 301 304 305 308 311 315 318 321 324 327 331 330 331 334 327 326 325 317 315 308 302 292 271 234 215 204 198 195 192 186 188 191 190 194 200 201 209 213 210 209 214
294 297 303 305 306 308 311 314 318 321 325 328 330 331 333 334 327 326 324 317 314 307 300 284 252 219 208 196 194 194 191 182 183 186 192 193 197 201 204 207 209 209 205
295 300 303 305 305 308 311 315 318 322 324 330 329 331 332 333 326 326 321 317 313 306 297 272 234 211 205 195 189 189 187 182 183 184 187 191 193 197 202 204 204 199 193
295 299 304 304 305 308 312 314 317 322 326 328 330 332 333 330 325 326 318 315 312 304 291 254 223 202 197 191 186 183 180 176 179 179 185 189 193 196 201 199 195 194 193
295 300 303 303 305 308 311 314 318 324 327 329 332 332 333 328 324 324 316 312 310 300 281 241 215 197 193 187 183 177 179 176 177 181 185 190 192 195 194 197 193 188 186
295 297 301 301 305 308 311 315 319 326 326 328 332 331 331 325 323 321 313 309 305 293 265 234 210 196 186 186 183 177 178 179 180 183 188 189 190 192 195 196 190 186 189
292 296 298 301 305 308 313 316 320 323 325 328 331 329 328 323 322 319 311 306 299 286 252 221 205 195 183 179 183 179 179 182 180 181 185 188 192 190 193 193 187 185 188
292 295 296 301 305 309 312 315 319 322 325 328 331 328 325 320 322 316 307 302 291 278 241 216 200 192 180 180 179 180 180 177 179 185 183 184 189 186 183 181 186 191 193
290 292 297 301 305 309 311 314 318 321 325 327 329 328 321 320 319 312 304 298 285 269 230 211 199 192 179 182 176 176 179 177 181 179 183 185 185 188 188 183 187 193 192
289 293 298 301 305 307 310 313 316 320 324 327 326 324 317 318 317 309 303 292 277 257 223 206 198 190 179 178 172 173 173 176 179 182 185 184 187 189 189 188 189 189 189
290 294 298 300 303 305 309 312 315 320 323 326 325 320 316 316 314 305 299 282 269 245 219 202 197 188 178 175 173 172 174 172 178 182 186 185 188 188 188 187 187 188 189
290 293 296 298 301 304 308 311 315 319 322 323 323 317 317 314 311 301 295 270 259 234 214 197 190 183 174 172 168 170 172 173 173 180 185 185 187 189 189 190 184 186 187
288 291 293 296 300 304 307 310 315 320 321 322 321 315 315 314 310 299 286 259 246 222 209 193 188 181 173 169 171 173 172 174 175 181 182 184 184 184 188 187 188 186 186
286 289 293 296 299 303 306 309 314 318 319 321 315 314 311 315 310 297 274 249 236 212 205 190 188 181 172 171 169 172 173 177 177 180 183 185 189 189 193 196 193 191 191
286 288 292 295 298 302 305 308 314 315 320 318 312 312 310 316 309 292 264 241 227 210 201 188 185 179 172 170 173 174 177 178 178 178 181 186 187 190 195 192 187 193 197
283 287 291 294 298 301 305 309 313 316 319 313 309 312 312 316 311 285 256 236 221 205 198 187 180 175 171 171 173 175 177 178 177 179 182 188 191 195 191 195 194 198 198
284 288 291 295 298 302 306 310 314 317 317 310 308 313 314 317 309 286 249 231 217 202 194 186 181 176 174 174 176 178 178 179 180 181 187 189 191 190 192 194 197 200 202
284 287 291 294 299 302 307 311 316 317 312 308 310 314 315 315 306 285 247 226 212 201 193 188 180 180 177 179 181 180 181 180 181 184 186 184 186 190 192 196 200 202 203
285 289 292 297 300 304 311 315 314 318 311 310 315 314 317 311 301 277 243 223 207 204 192 187 182 183 186 184 182 182 182 182 182 184 187 191 190 192 195 199 203 204 205
287 291 294 298 305 310 314 316 315 316 313 313 316 316 316 307 293 267 235 218 205 200 195 186 184 186 188 187 185 185 183 183 181 183 188 187 190 192 194 200 204 206 206
291 292 297 303 308 310 313 314 319 313 317 317 317 320 314 303 282 260 228 213 201 197 196 186 185 188 189 188 187 186 184 185 185 185 187 191 190 197 199 201 202 207 206
285 292 300 303 307 310 311 317 318 318 318 319 321 321 313 298 273 254 225 211 201 197 193 188 185 189 190 189 189 189 188 189 187 188 188 189 194 197 198 197 202 206 209
Height
10695 10689 10683 10677 10670 10661 10653 10644 10635 10624 10611 10596 10581 10565 10544 10521 10498 10469 10449 10437 10423 10413 10405 10401 10400 10400 10404 10411 10418 10433 10450 10464 10479 10500 10529 10557 10582 10610 10625 10651 10677 10698 10719
10681 10676 10670 10663 10656 10647 10639 10630 10621 10608 10594 10581 10566 10547 10525 10504 10479 10453 10436 10419 10410 10398 10393 10388 10388 10388 10391 10400 10409 10421 10435 10452 10470 10492 10512 10540 10574 10599 10616 10642 10664 10686 10706
10669 10662 10657 10651 10643 10634 10625 10616 10605 10593 10579 10564 10548 10530 10510 10488 10463 10436 10421 10405 10397 10387 10381 10378 10377 10378 10383 10390 10401 10414 10428 10442 10459 10482 10504 10534 10560 10583 10605 10627 10652 10675 10695
10655 10649 10644 10637 10627 10619 10610 10601 10590 10576 10563 10549 10532 10511 10493 10473 10446 10424 10408 10396 10388 10377 10372 10369 10368 10370 10375 10382 10393 10409 10423 10438 10454 10474 10496 10522 10548 10571 10596 10619 10648 10669 10689
10639 10634 10630 10622 10613 10604 10595 10585 10573 10562 10549 10534 10515 10497 10476 10456 10433 10414 10399 10386 10379 10369 10365 10362 10362 10365 10370 10378 10389 10401 10415 10431 10451 10470 10490 10517 10539 10563 10593 10617 10639 10664 10686
10624 10618 10613 10606 10596 10588 10579 10571 10558 10545 10532 10518 10502 10483 10461 10442 10419 10401 10387 10378 10370 10361 10358 10355 10356 10359 10364 10372 10385 10398 10415 10428 10446 10469 10492 10512 10539 10566 10587 10613 10635 10659 10681
10609 10604 10600 10593 10583 10574 10565 10555 10542 10532 10517 10501 10486 10468 10447 10428 10407 10390 10376 10369 10362 10354 10351 10350 10352 10355 10362 10371 10381 10394 10408 10425 10442 10464 10488 10512 10531 10556 10580 10608 10631 10657 10678
10595 10590 10585 10577 10568 10559 10550 10539 10528 10517 10502 10486 10471 10453 10434 10413 10395 10380 10369 10359 10354 10348 10345 10346 10348 10352 10359 10369 10378 10392 10407 10422 10441 10462 10483 10504 10529 10559 10580 10602 10625 10642 10661
10579 10575 10570 10561 10552 10545 10534 10523 10512 10501 10485 10471 10455 10436 10420 10400 10383 10370 10361 10350 10346 10344 10339 10341 10344 10349 10355 10367 10380 10391 10406 10420 10439 10456 10482 10502 10524 10546 10567 10588 10614 10639 10662
10565 10561 10556 10546 10539 10530 10519 10507 10496 10485 10471 10457 10440 10422 10407 10390 10373 10362 10353 10342 10338 10337 10335 10336 10342 10346 10352 10365 10381 10392 10404 10417 10433 10456 10476 10498 10522 10549 10573 10599 10617 10640 10655
10551 10546 10538 10530 10522 10513 10502 10491 10480 10472 10459 10444 10428 10409 10391 10377 10363 10353 10343 10335 10330 10331 10331 10334 10338 10345 10351 10361 10380 10390 10402 10418 10435 10455 10476 10499 10522 10544 10573 10598 10617 10635 10652
10534 10529 10521 10515 10505 10497 10487 10476 10467 10456 10444 10430 10414 10395 10376 10364 10352 10345 10335 10327 10324 10324 10326 10330 10335 10342 10348 10362 10372 10387 10404 10421 10437 10457 10478 10503 10524 10552 10576 10598 10612 10626 10637
10519 10513 10507 10499 10491 10482 10472 10461 10452 10441 10431 10416 10401 10384 10365 10352 10341 10335 10327 10319 10318 10318 10320 10325 10332 10338 10347 10360 10374 10395 10412 10427 10444 10464 10487 10510 10532 10553 10571 10587 10600 10615 10630
10502 10498 10492 10484 10476 10467 10457 10448 10438 10427 10417 10404 10387 10371 10353 10342 10332 10325 10318 10312 10311 10313 10315 10321 10328 10336 10344 10358 10372 10389 10409 10429 10447 10466 10488 10506 10526 10546 10564 10583 10602 10621 10641
10486 10482 10477 10470 10462 10454 10443 10432 10422 10413 10402 10390 10374 10358 10345 10330 10324 10316 10311 10307 10304 10307 10311 10317 10324 10335 10345 10358 10373 10390 10404 10422 10446 10465 10485 10503 10523 10545 10563 10583 10602 10621 10637
10471 10466 10461 10454 10447 10439 10429 10418 10406 10399 10387 10374 10360 10346 10334 10323 10313 10307 10303 10301 10299 10302 10307 10314 10322 10333 10344 10360 10375 10391 10406 10422 10441 10465 10481 10501 10524 10543 10562 10582 10601 10617 10632
10454 10451 10445 10439 10432 10424 10415 10405 10395 10381 10369 10356 10347 10331 10322 10312 10304 10299 10296 10295 10295 10298 10303 10311 10321 10332 10341 10354 10370 10387 10401 10420 10440 10465 10483 10504 10523 10544 10559 10578 10597 10614 10626
10439 10435 10429 10424 10418 10410 10401 10391 10382 10373 10355 10337 10329 10321 10310 10302 10295 10290 10290 10288 10290 10295 10300 10308 10318 10331 10342 10355 10370 10385 10402 10422 10438 10461 10484 10503 10523 10542 10557 10572 10592 10610 10622
10424 10419 10414 10409 10403 10396 10387 10376 10369 10356 10344 10330 10314 10308 10298 10294 10286 10283 10283 10282 10284 10289 10297 10306 10315 10331 10341 10354 10369 10383 10399 10419 10436 10460 10482 10502 10519 10537 10551 10568 10586 10600 10614
10407 10403 10399 10394 10388 10380 10371 10362 10352 10339 10330 10317 10306 10295 10286 10283 10278 10276 10276 10276 10279 10285 10292 10304 10314 10328 10338 10352 10369 10384 10398 10417 10434 10456 10477 10498 10518 10532 10548 10565 10581 10595 10608
10392 10388 10383 10378 10373 10365 10356 10346 10335 10324 10315 10302 10293 10284 10277 10272 10269 10267 10270 10271 10273 10279 10288 10299 10310 10324 10334 10348 10363 10378 10397 10415 10433 10450 10467 10493 10511 10527 10544 10558 10571 10584 10595
10377 10372 10367 10362 10358 10350 10341 10329 10319 10311 10300 10289 10281 10273 10266 10262 10260 10259 10261 10264 10268 10274 10282 10292 10305 10321 10331 10345 10358 10376 10394 10412 10432 10450 10467 10485 10504 10521 10537 10551 10563 10577 10592
10360 10356 10351 10347 10341 10333 10323 10313 10303 10297 10287 10275 10269 10263 10256 10252 10251 10253 10254 10256 10262 10267 10277 10287 10299 10315 10328 10339 10355 10371 10388 10406 10425 10445 10463 10480 10498 10515 10531 10544 10560 10576 10589
10344 10341 10336 10331 10324 10315 10306 10296 10289 10282 10271 10263 10258 10253 10247 10242 10242 10245 10247 10249 10255 10261 10271 10282 10296 10311 10323 10337 10350 10367 10385 10403 10420 10440 10457 10474 10493 10510 10526 10540 10553 10566 10578
10329 10324 10319 10313 10308 10299 10290 10282 10276 10267 10259 10252 10248 10242 10239 10234 10233 10236 10241 10243 10248 10256 10266 10277 10291 10304 10319 10333 10348 10364 10379 10396 10413 10431 10448 10468 10485 10501 10517 10533 10545 10556 10567
10312 10307 10304 10298 10293 10284 10275 10269 10263 10254 10247 10241 10237 10233 10230 10228 10225 10227 10233 10237 10242 10250 10261 10271 10284 10300 10314 10329 10343 10357 10371 10385 10400 10419 10439 10459 10477 10492 10509 10524 10536 10548 10559